Regional Weather Roundup
Issued by NWS

Home | Current Version | Previous Version | Text Only | Print | Product List | Glossary Off
Versions: 1 2 3 4 5 6 7 8 9 10 11 12 13 14 15 16 17 18 19 20 21 22 23 24 25 26 27 28

000
ASUS45 KCYS 241310
RWRWY

WYOMING REGIONAL WEATHER ROUNDUP
NATIONAL WEATHER SERVICE CHEYENNE WY
700 AM MDT FRI OCT 24 2014

NOTE:  "FAIR" INDICATES FEW OR NO CLOUDS BELOW 12,000 FEET
WITH NO SIGNIFICANT WEATHER AND/OR OBSTRUCTIONS TO VISIBILITY.

WYZ001-241400-
YELLOWSTONE NATIONAL PARK

CITY           SKY/WX    TMP DP  RH WIND       PRES   REMARKS
LK YELLOWSTONE   N/A     42  32  67 VRB5      30.22
W YELLOWSTONE  NOT AVBL

$$
WYZ002>013-054>058-071-098>099-241400-
NORTHERN WYOMING

CITY           SKY/WX    TMP DP  RH WIND       PRES   REMARKS
JACKSON        PTCLDY    46  30  53 S7        30.18R
CODY           CLOUDY    61  28  29 W6        30.04
GREYBULL       CLOUDY    37  27  67 E3        30.00R
WORLAND        FLURRIES  33  24  69 CALM      30.00R
SHERIDAN       CLOUDY    39  29  67 NW7       29.99R WCI  34
BUFFALO        CLOUDY    50  25  37 W7        30.03R
GILLETTE       CLOUDY    54  24  31 CALM      30.00R
HULETT         FAIR      50  28  43 SW8       29.99
NEWCASTLE      FAIR      43  30  61 CALM      30.02

$$
WYZ014>020-022>026-101>103-241400-
CENTRAL WYOMING

CITY           SKY/WX    TMP DP  RH WIND       PRES   REMARKS
BIG PINEY      CLEAR     28  22  78 E5        30.23R WCI  23
PINEDALE       MOSUNNY   30  28  93 W3        30.24
DUBOIS         PTSUNNY   43  25  49 NW20      30.14S
LANDER         MOCLDY    47  24  40 NW5       30.07R
RIVERTON       MOCLDY    46  22  38 CALM      30.08S
CASPER         CLOUDY    50  30  46 SW10      30.09R
DOUGLAS        CLOUDY    47  28  47 N8        30.07R

$$
WYZ021-027>030-104>119-241400-
SOUTHERN WYOMING

CITY           SKY/WX    TMP DP  RH WIND       PRES   REMARKS
EVANSTON       CLEAR     45  22  40 SW12      30.24R
KEMMERER       SUNNY     41  27  56 S3        30.24S
FORT BRIDGER   FAIR      47  23  38 W8        30.26R
ROCK SPRINGS   CLEAR     42  26  53 S3        30.23R
DIXON          FAIR      38  32  77 CALM      30.30R
RAWLINS        PTCLDY    45  27  49 S8        30.22R
SARATOGA       FAIR      41  30  65 SE7       30.26R
LARAMIE        MOCLDY    49  26  41 SW10      30.23R
CHEYENNE       CLOUDY    56  26  31 W3        30.19R
TORRINGTON     CLOUDY    57  33  40 W7        30.04R
PINE BLUFFS    FAIR      52  32  46 SW12      30.12S

$$



USA.gov is the U.S. government's official web portal to all federal, state and local government web resources and services.